Weather History for Coleman, TX

Change the Weather History Date:

Monday, March 3, 2014

  Actual Average (KABI) Record (KABI)
Temperature  
Mean Temperature 25 °F 53 °F  
Max Temperature 36 °F 65 °F 90 °F (1974)
Min Temperature 14 °F 41 °F 11 °F (1943)
Degree Days  
Heating Degree Days 40 13  
Month to date heating degree days 39  
Since 1 July heating degree days 2172  
Cooling Degree Days 0 0  
Month to date cooling degree days 0  
Year to date cooling degree days 5  
Moisture  
Dew Point 11 °F    
Average Humidity 56    
Maximum Humidity 78    
Minimum Humidity 37    
Precipitation  
Precipitation 0.00 in 0.05 in 1.42 in (1981)
Month to date precipitation 0.16  
Year to date precipitation 2.54  
Sea Level Pressure  
Sea Level Pressure 30.33 in    
Wind  
Wind Speed 14 mph (NNE)    
Max Wind Speed 22 mph    
Max Gust Speed 26 mph    
Visibility 10 miles    
Events Snow    
T = Trace of Precipitation, MM = Missing Value Source: NWS Daily Summary

Daily Weather History Graph

Daily Weather History Graph

Search for Another Location

Airport:

Trip Planner

Search our weather history database for the weather conditions in past years. The results will help you decide how hot, cold, wet, or windy it might be!

Date:

Astronomy

Mar. 03, 2014 Rise Set
Actual Time 7:02 AM CST 6:37 PM CST
Civil Twilight 6:37 AM CST 7:01 PM CST
Nautical Twilight 6:09 AM CST 7:29 PM CST
Astronomical Twilight 5:41 AM CST 7:58 PM CST
Moon 8:23 AM CST (3/3) 9:28 PM CST (3/3)
Length of Visible Light 12h 23m
Length of Day
11h 34m
Waxing Crescent, 8% of the Moon is Illuminated
Mar 3
Waxing Crescent
Mar 8
First Quarter
Mar 16
Full
Mar 23
Last Quarter
Mar 30
New

Hourly Weather History & Observations

Time (CST) Temp. Windchill Dew Point Humidity Pressure Visibility Wind Dir Wind Speed Gust Speed Precip Events Conditions
12:15 AM 18.3 °F 4.1 °F 12.0 °F 76% 30.34 in 7.0 mi North 15.0 mph - N/A Snow Light Snow
12:35 AM 17.6 °F 0.9 °F 11.5 °F 77% 30.34 in 10.0 mi North 20.7 mph - N/A Snow Light Snow
12:55 AM 17.4 °F 1.9 °F 10.8 °F 75% 30.35 in 10.0 mi North 17.3 mph 26.5 mph N/A Snow Light Snow
1:15 AM 17.1 °F 1.5 °F 10.9 °F 77% 30.36 in 10.0 mi North 17.3 mph - N/A Snow Light Snow
1:35 AM 17.1 °F 1.5 °F 11.3 °F 78% 30.37 in 5.0 mi North 17.3 mph 24.2 mph N/A Snow Light Snow
1:55 AM 17.1 °F -0.3 °F 10.9 °F 77% 30.36 in 7.0 mi North 21.9 mph 26.5 mph N/A Snow Light Snow
2:15 AM 16.7 °F 1.0 °F 9.7 °F 74% 30.36 in 10.0 mi North 17.3 mph - N/A   Overcast
2:35 AM 16.7 °F 3.2 °F 9.9 °F 74% 30.37 in 10.0 mi North 12.7 mph - N/A Snow Light Snow
2:55 AM 16.5 °F 0.3 °F 9.7 °F 74% 30.35 in 10.0 mi North 18.4 mph 24.2 mph N/A Snow Light Snow
3:15 AM 16.2 °F 0.8 °F 9.7 °F 76% 30.35 in 7.0 mi North 16.1 mph 20.7 mph N/A Snow Light Snow
3:35 AM 15.8 °F 0.3 °F 9.3 °F 76% 30.36 in 10.0 mi North 16.1 mph 23.0 mph N/A Snow Light Snow
3:55 AM 15.8 °F -0.2 °F 8.6 °F 73% 30.36 in 10.0 mi North 17.3 mph - N/A   Overcast
4:15 AM 15.8 °F -0.2 °F 8.6 °F 73% 30.36 in 10.0 mi North 17.3 mph 25.3 mph N/A   Overcast
4:35 AM 15.6 °F 1.2 °F 8.6 °F 74% 30.37 in 10.0 mi North 13.8 mph - N/A   Overcast
4:55 AM 15.4 °F -0.6 °F 7.7 °F 71% 30.37 in 10.0 mi North 17.3 mph 24.2 mph N/A   Mostly Cloudy
5:15 AM 14.9 °F 0.9 °F 7.7 °F 73% 30.37 in 10.0 mi North 12.7 mph 20.7 mph N/A   Mostly Cloudy
5:35 AM 14.9 °F -0.8 °F 7.7 °F 73% 30.37 in 10.0 mi North 16.1 mph 19.6 mph N/A   Scattered Clouds
5:55 AM 14.7 °F -0.5 °F 7.3 °F 73% 30.38 in 10.0 mi North 15.0 mph - N/A   Scattered Clouds
6:15 AM 14.5 °F -1.3 °F 7.7 °F 74% 30.38 in 10.0 mi North 16.1 mph - N/A   Mostly Cloudy
6:35 AM 14.5 °F -0.2 °F 7.3 °F 73% 30.37 in 10.0 mi North 13.8 mph - N/A   Scattered Clouds
6:55 AM 14.0 °F 2.9 °F 7.2 °F 74% 30.39 in 10.0 mi North 8.1 mph - N/A   Scattered Clouds
7:10 AM 14.0 °F -0.8 °F 7.2 °F 74% 30.39 in 10.0 mi North 13.8 mph 18.4 mph N/A   Scattered Clouds
7:35 AM 14.7 °F -0.5 °F 7.0 °F 71% 30.41 in 10.0 mi North 15.0 mph 19.6 mph N/A   Clear
7:55 AM 15.3 °F 0.2 °F 7.5 °F 71% 30.42 in 10.0 mi North 15.0 mph 20.7 mph N/A   Clear
8:15 AM 16.0 °F -0.4 °F 7.7 °F 70% 30.42 in 10.0 mi NNW 18.4 mph - N/A   Clear
8:35 AM 17.1 °F 1.0 °F 7.9 °F 67% 30.41 in 10.0 mi North 18.4 mph - N/A Snow Light Snow
8:55 AM 18.3 °F 1.8 °F 7.7 °F 63% 30.39 in 10.0 mi North 20.7 mph 26.5 mph N/A   Clear
9:15 AM 19.2 °F 3.0 °F 7.7 °F 61% 30.40 in 10.0 mi North 20.7 mph 26.5 mph N/A   Clear
9:35 AM 20.3 °F 5.7 °F 7.7 °F 58% 30.40 in 10.0 mi North 17.3 mph 24.2 mph N/A   Clear
9:55 AM 20.3 °F 7.7 °F 8.1 °F 59% 30.41 in 10.0 mi North 12.7 mph 18.4 mph N/A   Clear
10:15 AM 21.4 °F 8.0 °F 8.6 °F 58% 30.41 in 10.0 mi NNE 15.0 mph 19.6 mph N/A   Clear
10:35 AM 22.1 °F 8.9 °F 8.8 °F 57% 30.41 in 10.0 mi NNE 15.0 mph 19.6 mph N/A   Clear
10:55 AM 22.6 °F 11.3 °F 9.3 °F 57% 30.41 in 10.0 mi North 11.5 mph 17.3 mph N/A   Clear
11:15 AM 23.9 °F 12.9 °F 9.5 °F 54% 30.41 in 10.0 mi North 11.5 mph - N/A   Clear
11:35 AM 24.4 °F 12.4 °F 9.7 °F 53% 30.41 in 10.0 mi North 13.8 mph - N/A   Clear
11:50 AM 26.1 °F 16.2 °F 10.2 °F 51% 30.41 in 10.0 mi North 10.4 mph 17.3 mph N/A   Clear
12:15 PM 28.2 °F 18.9 °F 11.3 °F 49% 30.40 in 10.0 mi North 10.4 mph 16.1 mph N/A   Clear
12:35 PM 28.8 °F 19.0 °F 10.8 °F 47% 30.39 in 10.0 mi NNE 11.5 mph 18.4 mph N/A   Clear
12:55 PM 28.9 °F 21.9 °F 11.1 °F 47% 30.37 in 10.0 mi North 6.9 mph - N/A   Clear
1:15 PM 31.1 °F 21.9 °F 11.7 °F 45% 30.35 in 10.0 mi NNE 11.5 mph 16.1 mph N/A   Clear
1:35 PM 30.9 °F 23.5 °F 11.1 °F 44% 30.33 in 10.0 mi NNW 8.1 mph 19.6 mph N/A   Clear
1:55 PM 32.0 °F 22.5 °F 11.5 °F 43% 30.30 in 10.0 mi NE 12.7 mph 18.4 mph N/A   Clear
2:15 PM 32.0 °F 22.5 °F 11.8 °F 43% 30.29 in 10.0 mi NE 12.7 mph 18.4 mph N/A   Clear
2:35 PM 33.1 °F 24.9 °F 12.4 °F 42% 30.28 in 10.0 mi NNE 10.4 mph - N/A   Clear
2:55 PM 33.8 °F 24.8 °F 12.4 °F 41% 30.27 in 10.0 mi NNE 12.7 mph - N/A   Clear
3:15 PM 35.1 °F 28.6 °F 11.8 °F 38% 30.26 in 10.0 mi NE 8.1 mph - N/A   Clear
3:35 PM 36.1 °F 29.3 °F 12.2 °F 37% 30.26 in 10.0 mi NNE 9.2 mph - N/A   Clear
3:55 PM 36.5 °F 29.7 °F 12.2 °F 37% 30.26 in 10.0 mi NNE 9.2 mph - N/A   Clear
4:15 PM 36.7 °F 29.4 °F 12.2 °F 37% 30.25 in 10.0 mi NNE 10.4 mph - N/A   Clear
4:30 PM 36.7 °F 30.5 °F 12.4 °F 37% 30.25 in 10.0 mi North 8.1 mph - N/A   Clear
4:55 PM 36.1 °F 29.9 °F 12.2 °F 37% 30.25 in 10.0 mi NNE 8.1 mph - N/A   Clear
5:15 PM 36.1 °F 30.6 °F 12.4 °F 38% 30.25 in 10.0 mi NNE 6.9 mph - N/A   Clear
5:35 PM 36.3 °F 30.8 °F 12.6 °F 38% 30.25 in 10.0 mi North 6.9 mph - N/A   Clear
5:55 PM 35.6 °F 31.7 °F 12.7 °F 39% 30.25 in 10.0 mi NE 4.6 mph - N/A   Clear
6:15 PM 35.6 °F 30.7 °F 12.7 °F 39% 30.24 in 10.0 mi NNE 5.8 mph - N/A   Clear
6:35 PM 35.1 °F 29.3 °F 12.9 °F 40% 30.24 in 10.0 mi ENE 6.9 mph - N/A   Clear
6:55 PM 34.7 °F 30.6 °F 13.1 °F 41% 30.25 in 10.0 mi ENE 4.6 mph - N/A   Clear
7:15 PM 34.5 °F 28.6 °F 13.3 °F 42% 30.24 in 10.0 mi NE 6.9 mph - N/A   Clear
7:35 PM 33.8 °F 27.0 °F 12.9 °F 42% 30.25 in 10.0 mi NNE 8.1 mph - N/A   Clear
7:55 PM 33.3 °F 27.9 °F 12.9 °F 43% 30.25 in 10.0 mi NE 5.8 mph - N/A   Clear
8:15 PM 33.1 °F 27.7 °F 13.1 °F 44% 30.27 in 10.0 mi North 5.8 mph - N/A   Scattered Clouds
8:35 PM 33.1 °F 27.7 °F 13.1 °F 44% 30.26 in 10.0 mi NE 5.8 mph - N/A   Mostly Cloudy
8:55 PM 32.9 °F 29.8 °F 13.5 °F 45% 30.27 in 10.0 mi NE 3.5 mph - N/A   Scattered Clouds
9:10 PM 32.9 °F 28.5 °F 13.8 °F 45% 30.28 in 10.0 mi North 4.6 mph - N/A   Clear
9:35 PM 32.9 °F 28.5 °F 13.8 °F 45% 30.28 in 10.0 mi NNE 4.6 mph - N/A   Clear
9:55 PM 32.5 °F 27.1 °F 14.0 °F 46% 30.27 in 10.0 mi NE 5.8 mph - N/A   Scattered Clouds
10:15 PM 32.4 °F 25.3 °F 14.2 °F 47% 30.27 in 10.0 mi ENE 8.1 mph - N/A   Mostly Cloudy
10:35 PM 32.0 °F 25.6 °F 14.4 °F 48% 30.26 in 10.0 mi NE 6.9 mph - N/A   Mostly Cloudy
10:55 PM 32.0 °F 26.4 °F 14.4 °F 48% 30.26 in 10.0 mi ENE 5.8 mph - N/A   Mostly Cloudy
11:15 PM 31.6 °F 23.7 °F 14.7 °F 50% 30.25 in 10.0 mi NE 9.2 mph - N/A   Scattered Clouds
11:35 PM 31.1 °F 24.5 °F 14.9 °F 51% 30.24 in 10.0 mi ENE 6.9 mph - N/A   Clear
11:55 PM 30.9 °F 25.2 °F 15.3 °F 52% 30.22 in 10.0 mi ENE 5.8 mph - N/A   Clear